Volver al catálogo

STARLINK-4645

ActivoComunicacionesVLEO
NORAD 53743·PAYLOAD·🇺🇸 United States

Lanzado Sep 5, 2022 desde Cape Canaveral Space Force Station

Loading…

Próximos Pases (próximas 24 horas)

TLE

ActualizadoSource: CelesTrak SupGP

Época: Sep 15, 2026, 03:02 UTC

1 53743C 22107AV  26258.12687500  .00027710  00000+0  81877-3 0  2584
2 53743  53.1560 118.7075 0001216  82.9023  30.8346 15.34373518    12

Sigue STARLINK-4645 en tiempo real con AllMySat

Download on the App Store